Temp
-10 -10 -10 -10 -10 -9 -9 -12 -14 -15 -16 -15 -15 -15 -14 -15 -15 -15 -15 -15 -15 -15 -15 -14 -13 -13 -12 -12 -13 -10 -11 -11 -12 -12 -12 -11 -11 -11 -11 -10 -9 -9 -10 -10 -10 -10 -10 -10 -10
-10 -10 -10 -10 -10 -10 -11 -13 -14 -15 -15 -15 -15 -15 -15 -15 -14 -15 -15 -15 -15 -15 -15 -14 -14 -13 -12 -12 -12 -12 -11 -11 -12 -12 -12 -12 -12 -12 -11 -11 -10 -10 -11 -11 -10 -10 -11 -10 -10
-11 -10 -10 -10 -10 -10 -12 -13 -14 -14 -14 -14 -14 -15 -15 -15 -15 -15 -15 -15 -15 -15 -14 -14 -14 -14 -13 -13 -12 -12 -12 -11 -11 -12 -12 -12 -12 -12 -11 -11 -11 -10 -11 -10 -11 -11 -11 -10 -11
-11 -10 -10 -10 -10 -11 -12 -13 -14 -14 -14 -14 -15 -15 -15 -15 -16 -15 -15 -15 -15 -15 -15 -15 -14 -14 -13 -14 -12 -13 -13 -12 -12 -12 -12 -12 -12 -12 -12 -12 -11 -11 -10 -10 -10 -11 -12 -12 -12
-11 -11 -11 -11 -12 -12 -13 -13 -14 -13 -14 -15 -16 -15 -15 -15 -15 -14 -14 -14 -15 -15 -15 -15 -14 -14 -13 -14 -13 -12 -13 -13 -11 -12 -12 -12 -13 -13 -12 -12 -11 -11 -11 -10 -11 -12 -12 -12 -12
-11 -11 -11 -12 -12 -13 -13 -13 -13 -13 -14 -15 -15 -15 -15 -15 -14 -14 -14 -14 -14 -14 -14 -14 -14 -14 -14 -14 -14 -13 -12 -13 -12 -11 -12 -12 -12 -12 -12 -12 -11 -11 -11 -11 -11 -11 -12 -13 -13
-11 -11 -11 -12 -12 -13 -13 -12 -12 -13 -14 -14 -14 -15 -15 -15 -14 -14 -13 -14 -13 -14 -14 -14 -13 -13 -13 -13 -13 -14 -11 -12 -12 -12 -12 -12 -13 -12 -12 -13 -12 -11 -11 -11 -11 -11 -12 -13 -14
-11 -11 -11 -12 -13 -13 -13 -12 -12 -12 -13 -15 -15 -15 -15 -15 -14 -14 -14 -14 -14 -14 -13 -13 -12 -13 -13 -13 -13 -12 -11 -12 -13 -12 -13 -13 -12 -12 -13 -13 -12 -12 -11 -11 -11 -12 -13 -13 -15
-11 -11 -11 -12 -13 -13 -12 -12 -12 -13 -14 -14 -15 -14 -15 -15 -15 -15 -14 -14 -13 -13 -13 -13 -13 -13 -13 -13 -12 -11 -12 -12 -12 -12 -13 -12 -12 -13 -12 -12 -12 -12 -12 -11 -12 -12 -12 -13 -13
-11 -11 -11 -12 -13 -13 -12 -12 -12 -13 -14 -15 -15 -14 -15 -14 -13 -14 -14 -14 -14 -13 -13 -12 -11 -11 -10 -11 -11 -12 -10 -11 -12 -12 -13 -13 -13 -12 -12 -12 -12 -12 -12 -12 -12 -12 -11 -13 -14
-11 -12 -11 -12 -13 -13 -12 -11 -13 -13 -14 -15 -15 -14 -14 -14 -13 -13 -13 -13 -14 -14 -13 -12 -11 -10 -9 -10 -10 -11 -12 -12 -13 -13 -13 -13 -13 -12 -13 -12 -12 -12 -12 -12 -12 -11 -12 -13 -14
-12 -12 -12 -13 -14 -13 -12 -13 -13 -14 -14 -15 -14 -14 -13 -13 -13 -13 -12 -12 -12 -13 -13 -12 -11 -11 -9 -10 -10 -11 -11 -12 -12 -13 -13 -13 -13 -12 -12 -12 -12 -12 -12 -12 -12 -12 -13 -14 -15
-12 -12 -12 -12 -13 -14 -13 -13 -13 -14 -14 -15 -14 -14 -13 -12 -11 -12 -12 -12 -11 -12 -13 -12 -12 -11 -11 -10 -11 -11 -11 -12 -12 -13 -13 -13 -12 -12 -12 -12 -13 -13 -12 -12 -12 -12 -13 -14 -16
-12 -12 -12 -12 -13 -14 -14 -14 -14 -14 -14 -14 -14 -13 -13 -12 -12 -12 -11 -11 -11 -11 -12 -12 -12 -12 -11 -11 -11 -11 -12 -12 -12 -12 -12 -12 -13 -12 -12 -12 -12 -13 -12 -12 -13 -13 -14 -15 -16
-12 -12 -12 -13 -14 -14 -14 -15 -14 -14 -14 -14 -14 -13 -13 -13 -13 -11 -10 -11 -11 -11 -11 -11 -12 -12 -12 -12 -11 -11 -12 -12 -12 -12 -12 -12 -13 -13 -13 -12 -13 -13 -13 -13 -13 -14 -15 -15 -15
-13 -13 -12 -12 -13 -14 -14 -14 -14 -14 -14 -14 -14 -14 -15 -14 -12 -11 -11 -11 -11 -11 -11 -11 -11 -12 -11 -12 -12 -12 -12 -12 -13 -12 -12 -12 -13 -13 -13 -13 -13 -13 -14 -14 -15 -16 -16 -16 -15
-13 -13 -12 -12 -14 -15 -14 -14 -14 -14 -14 -14 -14 -15 -15 -14 -12 -12 -12 -11 -11 -11 -12 -11 -11 -12 -12 -12 -12 -12 -12 -12 -12 -12 -12 -13 -13 -13 -13 -13 -13 -13 -14 -15 -16 -16 -16 -15 -15
-13 -13 -12 -13 -13 -14 -14 -14 -14 -14 -14 -14 -15 -15 -15 -14 -14 -14 -13 -12 -11 -12 -12 -12 -12 -11 -12 -12 -12 -12 -12 -13 -12 -12 -12 -13 -13 -14 -13 -13 -13 -14 -15 -16 -16 -16 -16 -16 -15
-12 -13 -13 -13 -14 -13 -13 -14 -13 -14 -14 -14 -15 -15 -15 -14 -15 -15 -14 -13 -12 -12 -12 -12 -12 -12 -12 -12 -12 -12 -12 -12 -12 -13 -13 -13 -14 -13 -13 -13 -13 -15 -16 -16 -16 -16 -16 -16 -15
-13 -13 -13 -13 -14 -13 -13 -13 -12 -13 -14 -14 -14 -15 -15 -14 -15 -15 -15 -14 -13 -12 -12 -12 -12 -12 -12 -11 -11 -11 -12 -13 -12 -13 -13 -14 -14 -14 -14 -15 -15 -15 -15 -16 -15 -16 -16 -15 -16
-13 -13 -13 -13 -14 -13 -12 -13 -12 -13 -13 -14 -14 -14 -15 -15 -14 -15 -14 -15 -14 -15 -14 -14 -13 -12 -13 -12 -12 -12 -12 -12 -13 -12 -14 -14 -13 -14 -15 -15 -16 -15 -16 -16 -16 -16 -16 -16 -16
-13 -13 -14 -13 -13 -13 -13 -12 -13 -12 -13 -14 -14 -14 -14 -15 -14 -14 -14 -14 -14 -14 -15 -15 -14 -14 -13 -13 -14 -13 -13 -13 -14 -14 -14 -14 -14 -15 -15 -15 -15 -16 -16 -16 -16 -16 -16 -16 -16
-14 -14 -14 -14 -13 -12 -14 -13 -13 -12 -13 -14 -14 -14 -14 -14 -15 -14 -14 -14 -14 -14 -14 -14 -14 -14 -14 -14 -13 -13 -14 -14 -14 -14 -14 -14 -14 -15 -16 -15 -15 -16 -16 -16 -16 -16 -16 -16 -16
-15 -14 -14 -14 -13 -12 -13 -14 -13 -13 -14 -13 -14 -14 -14 -14 -14 -14 -14 -14 -14 -14 -14 -14 -14 -14 -14 -14 -13 -14 -14 -14 -14 -14 -14 -14 -14 -15 -15 -15 -15 -16 -17 -17 -16 -16 -16 -16 -16
-13 -14 -13 -14 -13 -12 -14 -13 -13 -14 -13 -13 -14 -14 -14 -14 -14 -14 -14 -15 -14 -14 -14 -14 -14 -14 -14 -14 -14 -14 -14 -14 -14 -14 -14 -14 -15 -15 -15 -15 -15 -16 -16 -16 -16 -16 -16 -16 -16
-14 -15 -14 -14 -13 -12 -14 -13 -13 -14 -13 -13 -14 -14 -13 -14 -14 -14 -14 -14 -15 -14 -14 -14 -14 -14 -14 -14 -14 -14 -14 -14 -14 -14 -14 -14 -15 -15 -15 -16 -16 -16 -16 -16 -16 -16 -16 -16 -16
-14 -14 -15 -14 -14 -13 -13 -13 -14 -13 -13 -13 -14 -14 -14 -14 -15 -15 -15 -14 -14 -15 -15 -15 -14 -15 -15 -14 -14 -15 -15 -15 -15 -15 -15 -15 -15 -15 -15 -16 -16 -16 -16 -16 -16 -16 -16 -16 -16
-15 -16 -15 -14 -14 -13 -13 -13 -13 -14 -13 -13 -13 -14 -14 -15 -15 -15 -15 -15 -14 -15 -15 -15 -15 -15 -15 -16 -15 -15 -15 -15 -15 -15 -15 -15 -15 -15 -16 -16 -16 -16 -16 -16 -16 -16 -16 -17 -17
-16 -15 -15 -15 -15 -14 -13 -13 -14 -14 -14 -14 -14 -14 -14 -15 -15 -15 -15 -15 -15 -15 -15 -15 -15 -15 -15 -15 -15 -15 -16 -15 -15 -16 -16 -16 -16 -16 -16 -16 -16 -16 -16 -15 -16 -16 -16 -16 -17
-16 -16 -15 -15 -15 -14 -13 -12 -14 -15 -14 -14 -15 -15 -15 -15 -15 -15 -15 -15 -15 -15 -15 -15 -15 -15 -15 -15 -15 -15 -15 -15 -15 -15 -15 -16 -16 -16 -16 -16 -15 -14 -14 -15 -15 -16 -16 -17 -17
Height
5810 5806 5803 5800 5797 5789 5785 5783 5779 5778 5777 5777 5775 5776 5776 5774 5774 5773 5772 5773 5774 5774 5775 5776 5778 5782 5787 5787 5793 5796 5796 5802 5804 5808 5813 5818 5820 5823 5825 5826 5827 5826 5828 5829 5831 5831 5831 5829 5830
5806 5803 5799 5795 5791 5783 5782 5779 5777 5775 5774 5773 5772 5771 5770 5769 5770 5768 5767 5768 5767 5767 5769 5772 5773 5778 5781 5783 5783 5791 5793 5796 5800 5804 5810 5814 5818 5820 5821 5823 5824 5825 5825 5827 5829 5829 5827 5828 5828
5804 5799 5796 5790 5784 5780 5778 5776 5774 5774 5773 5771 5768 5766 5766 5764 5763 5761 5760 5761 5760 5762 5763 5764 5766 5773 5775 5776 5776 5781 5788 5792 5797 5802 5808 5812 5816 5817 5819 5819 5818 5820 5822 5825 5826 5826 5825 5826 5827
5800 5796 5792 5786 5780 5777 5776 5775 5773 5772 5769 5766 5764 5762 5762 5760 5755 5750 5749 5751 5753 5756 5754 5758 5761 5765 5766 5774 5774 5776 5783 5788 5794 5799 5804 5809 5811 5815 5817 5817 5817 5818 5821 5824 5825 5825 5823 5824 5823
5796 5793 5788 5783 5777 5776 5773 5773 5771 5768 5765 5762 5761 5760 5757 5749 5744 5738 5734 5739 5745 5749 5752 5754 5754 5757 5761 5761 5769 5775 5776 5785 5789 5797 5800 5803 5807 5810 5813 5814 5816 5816 5819 5820 5822 5821 5820 5820 5820
5793 5788 5784 5779 5774 5773 5772 5771 5768 5765 5762 5761 5760 5755 5750 5744 5738 5731 5728 5730 5737 5743 5745 5750 5750 5751 5755 5757 5759 5769 5775 5781 5786 5786 5797 5800 5803 5806 5808 5811 5813 5814 5816 5817 5819 5819 5817 5817 5818
5789 5785 5781 5777 5774 5771 5769 5768 5765 5762 5759 5757 5756 5751 5746 5738 5735 5728 5724 5725 5730 5736 5741 5741 5743 5747 5748 5752 5760 5763 5769 5775 5780 5785 5794 5797 5799 5801 5804 5805 5808 5810 5812 5813 5816 5815 5814 5813 5814
5785 5782 5776 5773 5771 5769 5767 5764 5762 5758 5755 5754 5750 5747 5743 5740 5734 5728 5724 5725 5726 5730 5733 5734 5735 5738 5742 5744 5747 5755 5756 5770 5776 5784 5791 5794 5795 5799 5801 5802 5804 5806 5807 5809 5811 5812 5806 5807 5808
5782 5778 5774 5770 5768 5767 5763 5761 5758 5755 5753 5751 5747 5745 5741 5738 5734 5730 5727 5726 5726 5727 5728 5730 5731 5733 5732 5737 5737 5743 5755 5764 5771 5780 5788 5790 5792 5796 5796 5798 5799 5800 5802 5803 5804 5805 5804 5805 5804
5779 5775 5770 5767 5765 5764 5760 5758 5754 5753 5751 5749 5746 5743 5739 5736 5734 5731 5729 5725 5723 5722 5719 5719 5715 5715 5718 5727 5732 5745 5750 5751 5766 5774 5782 5786 5788 5791 5794 5795 5795 5795 5797 5797 5797 5797 5798 5798 5800
5775 5771 5767 5765 5763 5762 5758 5755 5752 5752 5749 5748 5744 5741 5739 5735 5731 5730 5729 5727 5726 5724 5719 5713 5710 5707 5706 5713 5724 5736 5747 5749 5765 5770 5778 5781 5784 5788 5790 5790 5791 5793 5793 5794 5792 5791 5792 5793 5794
5772 5768 5765 5763 5760 5759 5755 5752 5751 5750 5746 5743 5740 5739 5735 5734 5730 5729 5726 5724 5725 5726 5719 5717 5712 5703 5698 5707 5723 5733 5744 5749 5759 5768 5774 5777 5781 5783 5783 5787 5787 5787 5788 5789 5788 5786 5787 5788 5790
5772 5767 5762 5758 5756 5755 5753 5750 5749 5749 5743 5740 5738 5735 5732 5729 5726 5725 5723 5722 5722 5721 5720 5718 5716 5718 5713 5711 5724 5734 5744 5751 5760 5766 5770 5774 5776 5778 5779 5782 5782 5783 5782 5783 5783 5782 5783 5784 5787
5766 5765 5758 5754 5752 5751 5751 5748 5745 5747 5742 5740 5736 5731 5729 5726 5722 5722 5721 5721 5721 5722 5721 5718 5719 5720 5719 5721 5728 5736 5745 5753 5758 5762 5764 5768 5771 5772 5773 5776 5777 5776 5775 5777 5776 5776 5778 5781 5784
5763 5760 5755 5752 5749 5748 5748 5746 5742 5743 5742 5738 5734 5730 5727 5722 5720 5719 5718 5717 5718 5719 5721 5720 5721 5722 5726 5730 5733 5740 5748 5751 5756 5757 5760 5763 5767 5767 5769 5769 5771 5770 5770 5770 5771 5771 5774 5777 5780
5758 5759 5754 5752 5745 5745 5745 5744 5739 5739 5740 5738 5733 5728 5724 5721 5715 5712 5712 5714 5715 5718 5720 5721 5720 5724 5727 5730 5735 5739 5745 5749 5750 5752 5756 5760 5762 5762 5763 5765 5765 5764 5764 5764 5767 5769 5772 5775 5776
5754 5754 5751 5747 5742 5742 5742 5741 5737 5737 5738 5736 5732 5727 5725 5722 5714 5710 5708 5710 5711 5714 5717 5719 5721 5722 5725 5730 5733 5737 5740 5742 5744 5746 5751 5754 5757 5758 5758 5759 5760 5759 5759 5760 5763 5767 5772 5772 5774
5748 5749 5750 5746 5741 5738 5739 5738 5736 5736 5736 5733 5731 5728 5724 5721 5715 5711 5709 5709 5710 5712 5715 5718 5720 5721 5723 5727 5730 5733 5736 5740 5743 5745 5747 5750 5752 5753 5754 5756 5755 5754 5758 5759 5763 5767 5769 5769 5770
5743 5745 5745 5745 5739 5734 5735 5735 5735 5734 5734 5733 5730 5729 5726 5721 5718 5713 5709 5706 5707 5712 5714 5715 5717 5719 5722 5724 5727 5730 5733 5737 5739 5741 5743 5745 5746 5748 5748 5748 5750 5752 5756 5759 5761 5763 5764 5765 5766
5738 5739 5741 5741 5735 5731 5730 5731 5733 5732 5732 5731 5728 5726 5725 5723 5719 5717 5712 5709 5706 5708 5711 5714 5715 5716 5717 5719 5722 5724 5727 5731 5733 5736 5738 5738 5740 5742 5743 5746 5748 5752 5753 5754 5757 5760 5760 5760 5760
5734 5735 5736 5736 5731 5729 5726 5726 5728 5731 5730 5728 5727 5725 5725 5724 5722 5719 5716 5713 5712 5711 5712 5713 5716 5717 5716 5717 5720 5721 5724 5727 5729 5732 5731 5733 5735 5738 5741 5743 5747 5749 5749 5752 5754 5755 5756 5756 5756
5729 5731 5729 5729 5728 5725 5723 5723 5725 5728 5727 5726 5725 5723 5722 5722 5722 5720 5719 5717 5716 5714 5716 5717 5718 5718 5717 5714 5716 5719 5721 5724 5727 5729 5732 5734 5735 5738 5739 5741 5744 5745 5747 5750 5749 5751 5752 5751 5752
5726 5722 5721 5722 5723 5719 5719 5717 5722 5725 5724 5725 5724 5721 5720 5720 5722 5720 5720 5718 5719 5719 5719 5719 5720 5721 5719 5718 5719 5721 5722 5723 5725 5730 5733 5735 5734 5733 5737 5739 5740 5741 5743 5743 5745 5746 5747 5746 5744
5716 5715 5714 5714 5716 5713 5715 5713 5718 5720 5721 5722 5722 5721 5719 5718 5720 5720 5719 5721 5721 5721 5721 5723 5724 5724 5722 5721 5720 5722 5722 5724 5727 5728 5730 5729 5728 5731 5733 5736 5736 5737 5737 5739 5739 5740 5739 5738 5737
5706 5711 5709 5707 5709 5712 5709 5708 5714 5714 5717 5720 5720 5718 5718 5717 5717 5717 5718 5718 5719 5719 5719 5720 5721 5721 5721 5719 5719 5717 5720 5720 5722 5724 5725 5727 5728 5729 5732 5730 5730 5732 5732 5733 5733 5733 5732 5730 5728
5703 5704 5702 5702 5706 5709 5702 5701 5709 5709 5711 5716 5717 5717 5716 5716 5716 5716 5717 5717 5718 5719 5720 5721 5722 5723 5721 5719 5719 5719 5720 5722 5721 5723 5725 5726 5727 5727 5724 5726 5726 5725 5725 5725 5726 5726 5724 5723 5721
5695 5691 5699 5698 5697 5698 5696 5699 5703 5705 5708 5711 5713 5714 5715 5714 5713 5714 5714 5715 5716 5717 5718 5718 5720 5720 5718 5717 5717 5718 5719 5720 5718 5720 5723 5723 5721 5720 5721 5721 5722 5721 5720 5718 5718 5717 5716 5714 5712
5680 5689 5688 5688 5687 5689 5690 5693 5697 5701 5702 5705 5709 5710 5710 5711 5709 5710 5712 5712 5711 5712 5713 5713 5712 5712 5712 5712 5712 5713 5715 5715 5715 5716 5716 5715 5716 5715 5715 5714 5713 5712 5711 5709 5708 5707 5706 5704 5702
5672 5674 5676 5680 5680 5682 5684 5687 5695 5697 5698 5698 5702 5704 5705 5706 5706 5707 5708 5707 5707 5706 5707 5707 5707 5706 5706 5706 5707 5708 5710 5709 5710 5711 5710 5709 5707 5705 5705 5703 5701 5700 5701 5693 5696 5698 5697 5693 5690
5662 5667 5671 5672 5673 5676 5678 5683 5688 5690 5694 5694 5694 5696 5697 5699 5701 5702 5703 5702 5701 5701 5701 5702 5702 5702 5701 5700 5701 5703 5704 5705 5705 5704 5703 5702 5700 5699 5695 5693 5694 5694 5693 5693 5689 5687 5685 5682 5679
Wind_Speed
31 31 30 31 33 31 28 20 18 12 13 10 11 13 17 19 23 22 21 27 26 32 35 33 41 45 45 45 42 34 30 28 20 17 17 17 16 18 16 16 18 16 15 17 18 19 15 12 12
29 28 28 31 30 27 23 19 17 13 14 12 15 18 23 25 23 28 31 30 28 30 34 40 42 40 41 39 41 40 36 24 22 19 19 20 20 17 15 16 19 21 17 17 18 18 15 15 14
26 24 27 28 27 24 21 20 16 17 16 17 16 20 23 28 31 33 36 33 35 34 38 39 38 40 40 40 35 35 33 31 24 24 22 21 21 16 17 17 17 20 17 19 15 18 17 19 16
22 24 26 24 24 22 20 18 19 16 15 13 19 25 29 33 36 38 38 38 37 37 38 39 40 42 38 39 39 35 33 30 27 27 24 22 20 17 16 17 14 15 20 21 19 20 20 19 19
20 24 25 21 22 20 22 22 13 13 12 19 25 27 30 33 36 27 34 40 36 38 40 42 34 44 42 39 40 43 34 33 30 31 25 24 23 19 16 13 17 14 19 18 18 20 20 21 22
19 24 25 21 21 21 20 18 11 14 19 20 18 24 26 29 33 31 22 35 41 37 43 40 43 43 46 45 46 37 46 36 34 25 27 24 24 18 22 24 19 18 19 16 16 19 22 25 24
19 23 25 22 20 20 21 18 15 16 22 22 17 21 25 33 27 21 18 22 32 31 39 47 47 46 47 49 49 51 41 37 40 26 30 27 19 20 22 19 21 21 22 21 20 21 24 27 27
18 22 27 25 21 22 24 17 19 17 22 19 18 21 23 28 24 17 4 6 16 24 25 29 38 45 45 52 51 42 46 42 27 32 33 24 19 23 24 24 22 24 26 27 24 27 32 29 30
17 21 27 26 24 23 24 17 17 18 21 15 19 19 21 18 28 23 4 10 6 12 8 8 16 25 37 42 54 47 58 47 39 43 30 22 22 24 23 27 23 25 28 31 24 27 24 26 22
15 20 25 27 26 25 24 17 12 13 16 17 19 21 17 18 20 21 13 12 8 4 11 6 13 23 30 36 46 42 50 48 42 31 25 26 26 24 24 24 25 25 25 29 30 28 24 22 19
12 19 24 26 24 24 22 15 11 11 13 16 18 18 18 17 17 19 11 6 8 3 4 8 7 16 32 34 42 54 52 39 43 30 28 26 24 25 25 27 27 21 21 21 25 31 28 25 20
17 18 20 20 18 19 16 13 10 12 12 9 15 15 16 17 18 16 10 5 5 2 6 10 5 9 5 28 50 41 43 39 26 26 25 21 20 27 21 21 17 22 23 23 23 25 27 23 20
20 19 19 21 16 15 15 18 16 15 16 11 15 12 16 15 16 19 14 6 3 2 6 10 11 15 16 35 46 51 43 28 25 28 26 23 19 27 25 23 21 21 23 24 26 24 23 23 20
24 21 18 21 15 11 13 15 18 14 16 11 13 15 16 19 19 19 17 9 3 2 4 6 9 14 13 29 40 31 28 27 27 28 33 29 19 22 23 25 24 27 23 22 28 23 23 23 20
23 22 24 17 11 9 11 16 16 12 12 11 12 15 16 20 22 18 14 13 9 6 7 4 8 7 9 9 21 30 20 21 29 18 25 28 23 24 23 25 24 29 26 26 26 24 25 23 19
22 22 25 18 12 7 15 16 16 11 12 7 10 13 17 23 19 12 7 9 13 11 12 9 6 8 11 9 13 13 17 19 27 22 23 24 21 21 20 24 25 25 23 28 24 27 22 20 17
23 23 25 21 15 12 14 15 11 2 7 2 14 12 14 20 18 15 5 7 11 14 12 11 11 10 11 15 17 17 21 23 21 20 23 26 29 25 26 27 27 26 27 23 23 20 20 17 19
24 25 25 20 19 18 18 14 4 5 12 9 12 10 12 18 19 16 8 8 10 13 11 11 12 13 13 16 19 22 23 24 16 22 27 32 30 27 28 26 27 24 23 21 19 19 20 17 18
23 23 27 22 18 22 17 11 5 8 17 12 5 5 8 13 18 17 14 5 9 12 14 10 11 16 13 15 15 18 23 25 23 26 24 29 27 27 28 20 17 19 21 20 18 18 18 19 21
24 24 25 25 21 26 19 10 6 9 16 13 2 4 7 7 10 13 15 9 6 6 14 10 9 17 12 12 14 16 21 33 31 31 28 24 25 21 16 14 17 21 21 18 19 20 21 24 24
22 23 25 32 28 25 15 9 9 6 9 7 3 1 4 8 7 7 8 12 10 9 9 11 12 13 15 16 17 19 21 21 18 20 18 18 20 20 19 19 20 20 17 22 21 25 23 24 26
23 23 27 33 30 24 16 10 13 10 8 7 6 4 3 3 2 5 5 5 6 10 9 9 10 11 12 15 15 13 15 16 17 16 14 14 16 18 17 18 17 17 20 23 22 22 24 26 28
24 31 28 31 35 24 17 17 14 9 10 11 9 7 5 2 1 2 3 4 2 3 7 8 9 7 10 12 12 11 12 11 10 11 12 13 12 11 13 17 19 19 19 21 20 25 27 28 29
29 31 31 35 37 29 18 23 11 16 16 13 13 7 4 4 4 3 1 2 1 4 4 8 8 8 8 9 10 9 11 12 14 14 13 11 11 15 18 23 22 19 19 21 23 25 27 29 29
37 31 34 37 38 30 20 26 12 22 18 15 20 14 8 5 3 1 4 7 7 4 4 6 5 5 4 3 5 4 6 7 7 10 11 11 11 14 18 18 20 20 22 24 24 28 29 31 32
32 34 37 39 37 29 25 29 16 24 24 15 18 21 11 6 5 4 3 4 8 8 7 6 6 8 6 5 4 4 6 8 9 12 15 15 16 17 19 19 22 22 24 26 28 29 31 33 35
35 41 35 38 41 39 31 28 23 25 25 19 21 23 7 6 6 8 6 7 6 9 9 11 11 10 8 7 6 7 8 11 11 15 17 19 18 20 22 24 25 28 30 31 30 31 34 34 39
40 35 40 39 43 41 34 30 25 23 24 19 25 23 18 14 12 13 11 10 12 12 13 13 15 14 14 11 12 13 14 14 16 18 20 22 24 26 27 27 31 34 35 31 33 32 37 38 37
43 43 45 41 43 42 35 31 24 26 24 21 24 25 22 16 14 15 19 21 21 19 15 14 17 20 19 17 14 13 15 16 19 19 22 24 29 33 34 37 39 37 33 37 30 38 37 38 39
43 42 42 45 46 43 39 29 21 28 31 26 25 23 19 19 16 16 18 17 13 14 19 17 17 19 21 21 18 14 17 20 23 24 26 29 33 37 41 43 43 38 36 40 38 39 40 40 38
Wind_Direction
319 318 319 315 311 309 302 290 274 266 259 269 294 277 284 280 279 270 274 264 272 259 269 260 256 256 254 260 254 224 213 210 213 217 230 235 247 251 254 263 270 272 274 277 275 270 268 273 275
319 321 318 314 307 301 300 293 262 246 246 276 301 295 295 293 279 279 276 261 260 257 257 251 256 259 255 255 250 241 229 214 228 225 232 238 243 256 266 272 284 281 259 263 264 271 267 269 269
320 321 315 312 306 299 298 295 283 257 262 269 285 300 296 291 288 279 269 264 260 256 245 255 262 255 258 252 231 207 211 205 219 225 230 238 250 263 267 273 285 295 284 282 270 268 267 268 269
321 317 317 312 302 301 307 291 294 266 264 282 295 302 303 307 294 270 262 253 251 255 249 252 249 242 248 251 230 205 210 208 211 227 228 239 251 260 267 277 270 275 265 260 260 263 264 265 268
325 317 320 305 295 305 308 308 303 270 285 308 315 314 310 305 313 314 250 241 242 249 252 254 252 253 238 255 241 223 208 210 216 227 227 232 243 246 261 271 273 272 261 257 255 258 261 263 262
323 321 321 299 300 302 299 296 314 299 308 319 320 319 311 316 326 317 308 238 238 243 245 250 257 257 255 261 260 240 210 212 208 209 227 236 237 264 276 264 262 263 263 260 255 255 255 258 256
323 321 317 301 304 304 299 296 305 314 318 338 335 330 336 330 338 331 295 250 235 245 248 254 254 254 257 253 248 253 204 211 219 205 228 231 251 271 274 260 256 261 263 261 266 253 249 252 252
318 322 321 311 304 296 294 307 299 312 319 335 333 331 338 335 350 1 257 252 227 232 241 247 255 256 259 255 253 241 195 220 218 220 227 234 246 263 254 258 258 260 264 262 257 256 249 252 241
316 322 319 311 300 295 303 312 305 317 324 330 327 329 335 342 341 344 309 219 195 191 200 218 253 258 260 240 247 232 207 204 204 218 224 232 242 254 259 254 254 264 266 262 259 261 265 260 258
313 318 318 313 302 298 301 307 315 316 320 335 321 334 334 339 342 328 348 341 299 53 28 12 301 281 258 236 232 218 185 206 211 205 220 232 241 252 254 261 261 266 264 273 257 257 264 264 250
308 311 317 318 305 296 293 300 312 319 331 335 337 329 333 341 347 335 310 302 311 39 356 1 356 297 246 235 226 218 201 207 198 200 219 235 244 248 257 259 264 267 269 265 255 253 257 257 228
308 305 314 316 300 287 298 314 309 336 323 336 347 336 343 342 340 335 302 313 296 191 69 9 223 266 134 179 187 204 192 191 198 206 221 238 243 244 244 255 246 255 247 257 268 261 268 251 220
297 298 307 306 289 287 299 312 309 309 309 338 331 349 342 336 336 341 315 278 303 311 85 42 54 182 220 196 201 192 183 190 200 216 221 223 245 243 233 237 256 265 250 258 267 264 257 237 217
293 296 305 310 305 307 316 312 312 316 300 314 336 348 345 338 337 332 306 278 225 222 132 95 58 52 110 172 171 179 174 200 213 218 228 225 240 231 229 237 252 254 248 251 258 252 239 213 215
294 302 303 302 289 304 305 311 314 309 286 340 344 346 345 336 331 312 287 279 240 215 194 161 127 84 45 121 173 183 185 201 209 196 205 215 231 232 243 244 252 247 246 246 247 233 225 218 216
286 289 287 292 282 281 298 294 319 315 274 330 358 355 351 337 341 342 254 240 227 214 206 200 208 184 177 179 174 166 199 219 206 218 221 220 233 242 245 246 245 241 239 243 230 218 213 219 231
276 277 283 294 292 285 282 297 317 248 276 303 17 3 353 347 7 353 299 211 227 222 210 211 209 207 209 204 204 215 212 208 210 226 216 235 243 251 242 248 252 242 237 229 204 206 217 225 236
267 276 282 277 285 282 284 281 300 237 259 292 7 15 355 359 22 11 321 232 205 219 219 196 208 202 209 213 208 214 217 204 223 227 232 231 234 241 244 253 253 242 233 198 197 213 225 239 243
274 270 277 273 261 276 276 264 250 226 253 285 335 43 22 5 27 20 2 307 205 190 196 223 200 194 198 207 210 213 211 201 238 241 226 227 235 235 251 247 217 194 189 195 208 223 242 247 245
265 271 278 273 262 267 268 267 246 227 252 286 311 55 53 29 27 31 24 39 118 178 192 202 215 214 208 203 212 213 212 221 219 229 229 228 237 229 211 195 189 198 199 207 224 240 248 247 247
256 266 272 275 263 270 278 263 266 232 245 256 264 353 94 39 43 35 42 48 84 122 145 153 181 200 174 178 182 185 198 205 213 214 198 194 188 187 187 188 206 216 218 224 234 246 247 250 256
257 265 266 273 265 263 270 260 251 235 225 228 211 197 155 86 43 68 37 87 86 100 125 138 135 143 152 142 144 153 154 160 166 164 176 182 180 187 193 212 227 223 226 240 246 245 250 258 266
251 257 258 260 262 259 259 266 233 229 205 218 242 214 200 208 239 112 82 65 108 150 126 128 143 155 144 142 145 153 152 158 162 187 200 219 219 211 241 234 224 227 239 243 252 259 258 262 268
248 248 252 255 261 258 248 260 228 250 223 227 229 211 189 167 209 200 217 262 151 193 204 209 202 180 169 160 155 163 167 175 186 192 208 222 218 226 231 234 236 240 239 246 251 259 265 272 278
245 246 253 256 259 261 250 247 217 251 237 229 236 213 192 185 167 39 308 265 264 243 217 222 229 224 217 200 197 197 225 235 245 244 242 242 255 248 251 248 240 241 246 252 254 262 268 274 280
248 251 254 257 258 259 246 244 233 242 255 233 233 230 223 232 242 232 264 283 253 245 231 229 228 225 208 202 209 216 228 243 249 258 260 262 255 257 267 252 244 242 248 254 260 271 274 275 281
240 244 254 260 251 251 246 247 241 251 256 249 224 227 232 234 256 273 279 264 242 223 233 233 230 226 227 242 244 241 252 259 259 259 263 266 269 260 261 252 247 250 257 258 260 269 275 277 279
229 243 246 246 245 246 249 247 240 250 254 232 236 226 228 255 267 248 247 287 277 244 237 238 245 250 255 256 257 256 257 259 266 273 274 273 274 271 267 261 261 261 264 274 273 273 272 279 278
228 229 235 233 240 246 250 245 239 236 261 251 230 237 246 245 270 247 250 276 284 258 256 252 252 260 264 258 249 259 270 272 273 279 277 280 284 284 277 270 266 260 267 250 276 279 278 281 280
225 234 240 237 239 242 250 241 238 237 247 249 252 261 266 261 263 253 268 278 282 255 254 264 269 264 272 275 267 253 274 272 276 281 279 282 283 283 278 273 273 257 257 265 264 274 283 285 292